This demonstration page uses our WeatherBlox Daily Observations layout. Learn more.

Left ArrowRight Arrow

39.01783, -85.05884

Hourly Observations for April 11, 2018

Temp ( °F °C ) Dew Point ( °F °C ) Humidity (%) Winds ( mph kmh ) Pressure ( in mb ) Visibility ( mi km ) Precip ( " mm )
1:52 am 01:52 Clear 33 0.6 27 -2.8 78 78 W 7 11 30.21 1023 10 16 N/A
2:52 am 02:52 Clear 33 0.6 27 -2.8 78 78 W 5 7 30.20 1023 10 16 N/A
3:52 am 03:52 Clear 29 -1.7 28 -2.2 96 96 WSW 3 6 30.19 1023 8 13 N/A
4:52 am 04:52 Partly Cloudy with Mist and Fog 28 -2.2 27 -2.8 96 96 N N/A 30.19 1022 6 10 N/A
5:52 am 05:52 Cloudy with Mist and Fog 28 -2.2 27 -2.8 96 96 S 6 9 30.17 1022 6 10 N/A
6:52 am 06:52 Mostly Clear 31 -0.6 27 -2.8 85 85 S 3 6 30.18 1022 7 11 N/A
7:52 am 07:52 Partly Cloudy with Mist and Fog 30 -1.1 27 -2.8 88 88 S 6 9 30.19 1022 6 10 N/A
8:52 am 08:52 Mostly Sunny 37 2.8 31 -0.6 79 79 S 8 13 30.19 1023 8 13 N/A
9:52 am 09:52 Sunny 42 5.6 28 -2.2 58 58 SSW 13 20 30.20 1023 10 16 N/A
10:52 am 10:52 Mostly Sunny 45 7.2 28 -2.2 52 52 SSW 12 19 30.19 1023 10 16 N/A
11:52 am 11:52 Sunny 50 10 30 -1.1 46 46 SSW 13 20 30.19 1022 10 16 N/A
12:52 pm 12:52 Sunny 54 12.2 31 -0.6 42 42 SSW 14 22 30.16 1021 10 16 N/A
1:52 pm 13:52 Mostly Sunny 56 13.3 33 0.6 42 42 SSW 16 26 30.13 1020 10 16 N/A
2:52 pm 14:52 Mostly Sunny 59 15 34 1.1 39 39 SSW 13 20 30.09 1019 10 16 N/A
3:52 pm 15:52 Mostly Sunny 61 16.1 35 1.7 38 38 WSW 18 30 30.07 1018 10 16 N/A
4:52 pm 16:52 Mostly Cloudy 62 16.7 36 2.2 38 38 SSW 16 26 30.05 1018 10 16 N/A
5:52 pm 17:52 Mostly Cloudy 62 16.7 34 1.1 35 35 SSW 14 22 30.04 1017 10 16 N/A
6:52 pm 18:52 Partly Cloudy 62 16.7 34 1.1 35 35 S 16 26 30.03 1017 10 16 N/A
7:52 pm 19:52 Partly Cloudy 60 15.6 34 1.1 38 38 SSW 9 15 30.03 1017 10 16 N/A
8:52 pm 20:52 Partly Cloudy 57 13.9 34 1.1 42 42 SSW 7 11 30.03 1017 10 16 N/A
9:52 pm 21:52 Partly Cloudy 53 11.7 35 1.7 51 51 S 7 11 30.03 1017 10 16 N/A
10:52 pm 22:52 Cloudy 53 11.7 37 2.8 55 55 S 9 15 30.02 1017 10 16 N/A
11:52 pm 23:52 Cloudy 56 13.3 36 2.2 47 47 SSW 9 15 30.01 1016 10 16 N/A

Powered by AerisWeather